Location: Unspecified
(52.2799°N, 0.0000°E)
Time: 01:18:53
(UTC+00:00)

OTV 5 (USA 277) - Visible Passes

Search period start: 18 June 2019 00:00
Search period end: 28 June 2019 00:00
Orbit: 310 x 325 km, 54.5° (Epoch: 08 May)

Date Brightness Start Highest point End Pass type
(mag) Time Alt. Az. Time Alt. Az. Time Alt. Az.
18 Jun ? 00:08:18 33° SW 00:09:17 58° SSE 00:12:00 10° ENE visible
18 Jun ? 01:40:56 10° W 01:43:39 52° N 01:46:23 10° ENE visible
18 Jun ? 22:50:36 20° ESE 22:50:36 20° ESE 22:52:09 10° E visible
19 Jun ? 00:21:24 11° WSW 00:23:59 82° NNW 00:26:47 10° ENE visible
19 Jun ? 01:55:47 10° WNW 01:58:30 50° N 02:01:13 10° E visible
19 Jun ? 23:03:08 23° SSW 23:04:29 42° SSE 23:07:08 10° ENE visible
20 Jun ? 00:36:02 10° W 00:38:48 58° N 00:41:32 10° ENE visible
20 Jun ? 02:10:36 10° WNW 02:13:20 58° N 02:16:04 10° E visible
20 Jun ? 21:43:23 10° S 21:45:12 16° SE 21:47:01 10° E visible
20 Jun ? 23:16:24 10° WSW 23:19:10 78° SSE 23:21:57 10° ENE visible
21 Jun ? 00:50:54 10° W 00:53:37 50° N 00:56:21 10° ENE visible
21 Jun ? 02:25:21 10° WNW 02:28:08 82° NNE 02:30:54 10° ESE visible
21 Jun ? 21:57:14 10° SSW 21:59:44 30° SSE 22:02:14 10° E visible
21 Jun ? 23:31:10 10° W 23:33:56 67° NNW 23:36:42 10° ENE visible
22 Jun ? 01:05:44 10° WNW 01:08:28 52° N 01:11:11 10° E visible
22 Jun ? 02:40:08 10° WNW 02:42:52 58° SSW 02:45:34 10° SE visible
22 Jun ? 22:11:38 10° SW 22:14:22 58° SSE 22:17:07 10° ENE visible
22 Jun ? 23:46:01 10° W 23:48:45 52° N 23:51:29 10° ENE visible
23 Jun ? 01:20:31 10° WNW 01:23:18 68° NNE 01:26:03 10° E visible
23 Jun ? 22:26:19 10° WSW 22:29:05 82° NNW 22:31:52 10° ENE visible
24 Jun ? 00:00:53 10° WNW 00:03:36 50° N 00:06:19 10° E visible
24 Jun ? 01:35:17 10° WNW 01:38:04 78° SSW 01:40:49 10° ESE visible
24 Jun ? 22:41:08 10° W 22:43:53 58° N 22:46:38 10° ENE visible
25 Jun ? 00:15:41 10° WNW 00:18:26 58° N 00:21:10 10° E visible
25 Jun ? 01:50:05 10° WNW 01:52:44 41° SSW 01:55:23 10° SE visible
25 Jun ? 21:21:30 10° WSW 21:24:15 79° SSE 21:27:03 10° ENE visible
25 Jun ? 22:56:00 10° W 22:58:43 50° N 23:01:27 10° ENE visible
26 Jun ? 00:30:27 10° WNW 00:33:14 83° NNE 00:36:00 10° ESE visible
26 Jun ? 02:05:05 10° W 02:07:20 22° SW 02:09:32 10° SSE visible
26 Jun ? 21:36:16 10° W 21:39:02 67° NNW 21:41:48 10° ENE visible
26 Jun ? 23:10:51 10° WNW 23:13:34 52° N 23:16:18 10° E visible
27 Jun ? 00:45:13 10° WNW 00:47:58 57° SSW 00:50:15 13° SE visible
27 Jun ? 02:20:53 10° WSW 02:20:59 10° WSW 02:20:59 10° WSW visible
27 Jun ? 21:51:07 10° W 21:53:51 52° N 21:56:35 10° ENE visible
27 Jun ? 23:25:37 10° WNW 23:28:24 68° NNE 23:31:09 10° E visible
